Home   Weather   Montréal   Past weeks
Flag for Canada

Past Weather in Montréal, Quebec, Canada — Yesterday and Last 2 Weeks

Now
28 °F

Sunny.


Feels Like: 17 °F
Forecast: 30 / 17 °F
Wind: 16 mph from West

Location: Montreal - Pierre Elliot Trudeau International Aiport

Current Time: Mar 26, 2019 at 2:54:47 pm

Latest Report: Mar 26, 2019 at 2:00 pm


Visibility: 30 mi

Pressure: 30.37 "Hg

Humidity: 40%

Dew Point: 7 °F

Location of MontréalLocation

Past Weather in Montréal — Graph

°F

Montréal Temperature Yesterday

Maximum temperature yesterday: 32 °F (at 5:00 pm)
Minimum temperature yesterday: 19 °F (at 7:00 am)
Average temperature yesterday: 26 °F

High & Low Weather Summary for the Past Weeks

 TemperatureHumidityPressure
High48 °F (Mar 15, 10:00 am)100% (Mar 14, 3:29 am)30.43 "Hg (Mar 14, 3:29 am)
Low14 °F (Mar 19, 5:00 am)27% (Mar 25, 6:00 pm)29.35 "Hg (Mar 22, 6:00 pm)
Average31 °F66%30.01 "Hg
* Reported Mar 11 1:05 pm — Mar 26 1:00 pm, Montréal. Weather by CustomWeather, © 2019

Note: Actual official high and low records may vary slightly from our data, if they occured in-between our weather recording intervals... More about our weather records

Advertising

Montréal Weather History for the Previous 24 Hours

Scroll right to see more
 ConditionsComfort  
Time TempWeatherWind HumidityBarometerVisibility
1:00 pm
Tue, Mar 26
27 °FSunny.16 mph43%30.37 "Hg30 mi
12:00 pm25 °FSunny.13 mph39%30.38 "Hg30 mi
11:00 am23 °FSunny.13 mph42%30.39 "Hg30 mi
10:00 am23 °FSunny.8 mph39%30.38 "Hg30 mi
9:00 am21 °FSunny.12 mph42%30.37 "Hg30 mi
8:00 am21 °FSunny.10 mph42%30.36 "Hg30 mi
7:00 am19 °FSunny.8 mph49%30.32 "Hg30 mi
6:00 am21 °FClear.2 mph42%30.29 "Hg15 mi
5:00 am23 °FClear.10 mph39%30.26 "Hg15 mi
4:00 am23 °FClear.7 mph42%30.23 "Hg15 mi
3:00 am25 °FClear.12 mph42%30.21 "Hg15 mi
2:00 am25 °FClear.8 mph59%30.18 "Hg15 mi
1:00 am25 °FClear.9 mph63%30.15 "Hg15 mi
12:00 am27 °FClear.14 mph59%30.13 "Hg15 mi
11:00 pm
Mon, Mar 25
28 °FClear.15 mph51%30.11 "Hg15 mi
10:00 pm28 °FClear.9 mph47%30.10 "Hg15 mi
9:00 pm27 °FClear.9 mph46%30.09 "Hg15 mi
8:00 pm28 °FPassing clouds.12 mph40%30.08 "Hg15 mi
7:00 pm30 °FSunny.17 mph31%30.07 "Hg30 mi
6:00 pm32 °FSunny.23 mph27%30.06 "Hg30 mi
5:00 pm32 °FSunny.23 mph29%30.06 "Hg30 mi
4:00 pm30 °FSunny.24 mph34%30.08 "Hg30 mi
3:00 pm28 °FSunny.26 mph43%30.10 "Hg30 mi
2:00 pm28 °FSunny.21 mph37%30.13 "Hg30 mi
Weather by CustomWeather, © 2019

See weather overview